Location: Unspecified
(0.0000°N, 0.0000°E)
Time: 13:04:53
(UTC+00:00)

X-37B - Pass Details

Date: 30 November 2021
Orbit: 329 x 342 km, 45.0° (Epoch: 06 December)

Event Time Altitude Azimuth Distance (km) Brightness Sun altitude
Exits shadow 04:55:52 - 358° (N) 1,702 3.6 -12.2°
Reaches altitude 10° 04:57:45 10° 24° (NNE) 1,238 3.2 -11.8°
Maximum altitude 04:58:48 12° 47° (NE) 1,152 3.3 -11.6°
Drops below altitude 10° 04:59:52 10° 70° (ENE) 1,240 3.9 -11.3°
Sets 05:02:51 0° 105° (ESE) 2,076 6.4 -10.6°
